Time,TemperatureF,DewpointF,PressureIn,WindDirection,WindDirectionDegrees,WindSpeedMPH,WindSpeedGustMPH,Humidity,HourlyPrecipIn,Conditions,Clouds,dailyrainin,SoftwareType,DateUTC
2013-01-26 07:15:00,10.9,7.0,30.37,NNW,338,0.0,0.0,84,0.00,,,0.00,Wunderground v.1.15,2013-01-26 13:15:00,
2013-01-26 07:16:00,10.9,7.0,30.37,NNW,338,0.0,0.0,84,0.00,,,0.00,Wunderground v.1.15,2013-01-26 13:16:00,
2013-01-26 07:17:00,10.9,7.0,30.37,NNW,338,0.0,0.0,84,0.00,,,0.00,Wunderground v.1.15,2013-01-26 13:17:00,
2013-01-26 07:19:00,10.8,6.9,30.38,NNW,338,0.0,0.0,84,0.00,,,0.00,Wunderground v.1.15,2013-01-26 13:19:00,
2013-01-26 07:25:00,10.8,6.9,30.38,NNW,338,0.0,0.0,84,0.00,,,0.00,Wunderground v.1.15,2013-01-26 13:25:00,
2013-01-26 07:31:00,10.8,7.2,30.38,NNW,338,0.0,0.0,85,0.00,,,0.00,Wunderground v.1.15,2013-01-26 13:31:00,
2013-01-26 07:36:00,10.9,7.3,30.39,NNW,338,0.0,0.0,85,0.00,,,0.00,Wunderground v.1.15,2013-01-26 13:36:00,
2013-01-26 07:42:00,11.1,7.2,30.39,NNW,338,0.0,0.0,84,0.00,,,0.00,Wunderground v.1.15,2013-01-26 13:42:00,
2013-01-26 07:48:00,11.4,7.5,30.39,NNW,338,1.0,3.0,84,0.00,,,0.00,Wunderground v.1.15,2013-01-26 13:48:00,
2013-01-26 07:54:00,11.7,7.5,30.39,NNW,338,2.0,3.0,83,0.00,,,0.00,Wunderground v.1.15,2013-01-26 13:54:00,
2013-01-26 08:00:00,12.0,8.1,30.39,NNW,338,1.0,1.0,84,0.00,,,0.00,Wunderground v.1.15,2013-01-26 14:00:00,
2013-01-26 08:05:00,12.3,8.1,30.39,NNW,338,2.0,2.0,83,0.00,,,0.00,Wunderground v.1.15,2013-01-26 14:05:00,
2013-01-26 08:11:00,12.8,8.6,30.39,NNW,338,1.0,2.0,83,0.00,,,0.00,Wunderground v.1.15,2013-01-26 14:11:00,
2013-01-26 08:17:00,13.3,9.1,30.39,NNW,338,2.0,3.0,83,0.00,,,0.00,Wunderground v.1.15,2013-01-26 14:17:00,
2013-01-26 08:22:00,13.6,9.4,30.39,NNW,338,2.0,2.0,83,0.00,,,0.00,Wunderground v.1.15,2013-01-26 14:22:00,
2013-01-26 08:28:00,14.1,9.9,30.39,NNW,338,2.0,3.0,83,0.00,,,0.00,Wunderground v.1.15,2013-01-26 14:28:00,
2013-01-26 08:34:00,14.6,10.6,30.39,NNW,338,2.0,3.0,84,0.00,,,0.00,Wunderground v.1.15,2013-01-26 14:34:00,
2013-01-26 08:40:00,15.4,10.9,30.39,NNW,340,3.0,3.0,82,0.00,,,0.00,Wunderground v.1.15,2013-01-26 14:40:00,
2013-01-26 08:46:00,16.1,11.3,30.40,NNW,340,3.0,4.0,81,0.00,,,0.00,Wunderground v.1.15,2013-01-26 14:46:00,
2013-01-26 08:51:00,16.6,11.2,30.40,North,355,4.0,4.0,79,0.00,,,0.00,Wunderground v.1.15,2013-01-26 14:51:00,
2013-01-26 08:57:00,17.1,11.4,30.40,North,9,4.0,4.0,78,0.00,,,0.00,Wunderground v.1.15,2013-01-26 14:57:00,
2013-01-26 09:04:00,17.4,11.7,30.41,WNW,299,4.0,5.0,78,0.00,,,0.00,Wunderground v.1.15,2013-01-26 15:04:00,
2013-01-26 09:09:00,17.7,11.7,30.41,North,360,3.0,5.0,77,0.00,,,0.00,Wunderground v.1.15,2013-01-26 15:09:00,
2013-01-26 09:15:00,17.8,11.5,30.41,NNW,337,3.0,5.0,76,0.00,,,0.00,Wunderground v.1.15,2013-01-26 15:15:00,
2013-01-26 09:20:00,18.1,11.5,30.42,NNW,333,3.0,3.0,75,0.00,,,0.00,Wunderground v.1.15,2013-01-26 15:20:00,
2013-01-26 09:25:00,18.3,11.7,30.42,North,355,3.0,4.0,75,0.00,,,0.00,Wunderground v.1.15,2013-01-26 15:25:00,
2013-01-26 09:31:00,18.5,11.9,30.42,NNW,346,3.0,4.0,75,0.00,,,0.00,Wunderground v.1.15,2013-01-26 15:31:00,
2013-01-26 09:36:00,18.7,11.8,30.42,North,360,3.0,6.0,74,0.00,,,0.00,Wunderground v.1.15,2013-01-26 15:36:00,
2013-01-26 09:42:00,19.0,11.8,30.42,North,360,4.0,5.0,73,0.00,,,0.00,Wunderground v.1.15,2013-01-26 15:42:00,
2013-01-26 09:47:00,19.3,12.4,30.42,NNE,17,3.0,5.0,74,0.00,,,0.00,Wunderground v.1.15,2013-01-26 15:47:00,
2013-01-26 09:54:00,19.5,12.3,30.42,NNW,347,3.0,5.0,73,0.00,,,0.00,Wunderground v.1.15,2013-01-26 15:54:00,
2013-01-26 09:59:00,19.9,12.0,30.42,North,5,3.0,5.0,71,0.00,,,0.00,Wunderground v.1.15,2013-01-26 15:59:00,
2013-01-26 10:04:00,20.3,12.7,30.42,North,9,4.0,4.0,72,0.00,,,0.00,Wunderground v.1.15,2013-01-26 16:04:00,
2013-01-26 10:10:00,20.7,12.8,30.42,NNW,338,3.0,4.0,71,0.00,,,0.00,Wunderground v.1.15,2013-01-26 16:10:00,
2013-01-26 10:15:00,21.0,12.4,30.42,NNW,338,3.0,4.0,69,0.00,,,0.00,Wunderground v.1.15,2013-01-26 16:15:00,
2013-01-26 10:20:00,21.2,12.6,30.42,North,350,3.0,6.0,69,0.00,,,0.00,Wunderground v.1.15,2013-01-26 16:20:00,
2013-01-26 10:26:00,21.4,12.5,30.42,NE,34,4.0,6.0,68,0.00,,,0.00,Wunderground v.1.15,2013-01-26 16:26:00,
2013-01-26 10:31:00,21.5,12.6,30.42,NNE,28,5.0,5.0,68,0.00,,,0.00,Wunderground v.1.15,2013-01-26 16:31:00,
2013-01-26 10:37:00,21.8,12.9,30.42,North,355,4.0,6.0,68,0.00,,,0.00,Wunderground v.1.15,2013-01-26 16:37:00,
2013-01-26 10:43:00,22.2,12.6,30.42,ENE,57,4.0,5.0,66,0.00,,,0.00,Wunderground v.1.15,2013-01-26 16:43:00,
2013-01-26 10:48:00,22.5,12.8,30.42,NE,47,4.0,6.0,66,0.00,,,0.00,Wunderground v.1.15,2013-01-26 16:48:00,
2013-01-26 10:54:00,22.7,12.3,30.42,NNW,348,4.0,6.0,64,0.00,,,0.00,Wunderground v.1.15,2013-01-26 16:54:00,
2013-01-26 11:00:00,22.8,11.7,30.41,NE,40,5.0,5.0,62,0.00,,,0.00,Wunderground v.1.15,2013-01-26 17:00:00,
2013-01-26 11:05:00,23.0,11.5,30.41,NE,41,5.0,6.0,61,0.00,,,0.00,Wunderground v.1.15,2013-01-26 17:05:00,
2013-01-26 11:10:00,23.4,11.9,30.41,North,355,5.0,5.0,61,0.00,,,0.00,Wunderground v.1.15,2013-01-26 17:10:00,
2013-01-26 11:16:00,23.6,11.4,30.42,NNE,17,4.0,5.0,59,0.00,,,0.00,Wunderground v.1.15,2013-01-26 17:16:00,
2013-01-26 11:21:00,23.9,10.9,30.41,NNE,19,4.0,4.0,57,0.00,,,0.00,Wunderground v.1.15,2013-01-26 17:21:00,
2013-01-26 11:27:00,24.2,11.5,30.41,NE,55,3.0,4.0,58,0.00,,,0.00,Wunderground v.1.15,2013-01-26 17:27:00,
2013-01-26 11:32:00,24.3,11.6,30.41,ENE,65,3.0,5.0,58,0.00,,,0.00,Wunderground v.1.15,2013-01-26 17:32:00,
2013-01-26 11:38:00,24.6,11.9,30.41,North,5,4.0,6.0,58,0.00,,,0.00,Wunderground v.1.15,2013-01-26 17:38:00,
2013-01-26 11:44:00,24.9,11.4,30.41,North,355,3.0,4.0,56,0.00,,,0.00,Wunderground v.1.15,2013-01-26 17:44:00,
2013-01-26 11:49:00,25.1,11.6,30.41,NNE,12,3.0,5.0,56,0.00,,,0.00,Wunderground v.1.15,2013-01-26 17:49:00,
2013-01-26 11:54:00,25.3,11.0,30.41,South,183,3.0,5.0,54,0.00,,,0.00,Wunderground v.1.15,2013-01-26 17:54:00,
2013-01-26 12:00:00,25.2,10.9,30.41,East,88,3.0,3.0,54,0.00,,,0.00,Wunderground v.1.15,2013-01-26 18:00:00,
2013-01-26 12:05:00,25.3,10.1,30.41,ENE,69,3.0,5.0,52,0.00,,,0.00,Wunderground v.1.15,2013-01-26 18:05:00,
2013-01-26 12:10:00,25.4,11.0,30.40,ENE,67,3.0,3.0,54,0.00,,,0.00,Wunderground v.1.15,2013-01-26 18:10:00,
2013-01-26 12:16:00,25.6,10.8,30.40,NNW,332,2.0,3.0,53,0.00,,,0.00,Wunderground v.1.15,2013-01-26 18:16:00,
2013-01-26 12:21:00,26.0,11.2,30.40,NNE,32,1.0,2.0,53,0.00,,,0.00,Wunderground v.1.15,2013-01-26 18:21:00,
2013-01-26 12:27:00,26.0,10.3,30.40,NNW,347,2.0,4.0,51,0.00,,,0.00,Wunderground v.1.15,2013-01-26 18:27:00,
2013-01-26 12:33:00,26.2,11.4,30.39,NE,37,2.0,3.0,53,0.00,,,0.00,Wunderground v.1.15,2013-01-26 18:33:00,
2013-01-26 12:38:00,26.3,11.0,30.40,WNW,284,2.0,3.0,52,0.00,,,0.00,Wunderground v.1.15,2013-01-26 18:38:00,
2013-01-26 12:44:00,26.1,10.9,30.39,SW,236,2.0,3.0,52,0.00,,,0.00,Wunderground v.1.15,2013-01-26 18:44:00,
2013-01-26 12:50:00,26.5,11.7,30.39,West,269,1.0,1.0,53,0.00,,,0.00,Wunderground v.1.15,2013-01-26 18:50:00,
2013-01-26 12:56:00,26.9,11.2,30.40,South,174,0.0,3.0,51,0.00,,,0.00,Wunderground v.1.15,2013-01-26 18:56:00,
2013-01-26 13:02:00,26.9,11.2,30.40,SSW,205,1.0,2.0,51,0.00,,,0.00,Wunderground v.1.15,2013-01-26 19:02:00,
2013-01-26 13:08:00,27.0,11.7,30.40,SSW,209,1.0,3.0,52,0.00,,,0.00,Wunderground v.1.15,2013-01-26 19:08:00,
2013-01-26 13:14:00,27.2,11.0,30.39,SW,234,2.0,3.0,50,0.00,,,0.00,Wunderground v.1.15,2013-01-26 19:14:00,
2013-01-26 13:20:00,27.5,10.8,30.40,North,350,3.0,5.0,49,0.00,,,0.00,Wunderground v.1.15,2013-01-26 19:20:00,
2013-01-26 13:26:00,27.6,10.9,30.40,NNE,24,2.0,5.0,49,0.00,,,0.00,Wunderground v.1.15,2013-01-26 19:26:00,
2013-01-26 13:31:00,27.8,11.1,30.40,NNW,336,0.0,3.0,49,0.00,,,0.00,Wunderground v.1.15,2013-01-26 19:31:00,
2013-01-26 13:37:00,28.2,11.5,30.40,West,269,2.0,4.0,49,0.00,,,0.00,Wunderground v.1.15,2013-01-26 19:37:00,
2013-01-26 13:43:00,28.5,11.7,30.40,SW,223,2.0,2.0,49,0.00,,,0.00,Wunderground v.1.15,2013-01-26 19:43:00,
2013-01-26 13:48:00,28.7,11.0,30.40,SW,231,2.0,6.0,47,0.00,,,0.00,Wunderground v.1.15,2013-01-26 19:48:00,
2013-01-26 13:54:00,28.7,11.0,30.39,WNW,300,2.0,2.0,47,0.00,,,0.00,Wunderground v.1.15,2013-01-26 19:54:00,
2013-01-26 14:00:00,28.6,11.4,30.39,WNW,290,2.0,2.0,48,0.00,,,0.00,Wunderground v.1.15,2013-01-26 20:00:00,
2013-01-26 14:06:00,28.7,11.5,30.39,NW,311,2.0,5.0,48,0.00,,,0.00,Wunderground v.1.15,2013-01-26 20:06:00,
2013-01-26 14:12:00,28.7,11.0,30.40,West,271,2.0,3.0,47,0.00,,,0.00,Wunderground v.1.15,2013-01-26 20:12:00,
2013-01-26 14:19:00,28.8,11.1,30.40,SSW,192,2.0,3.0,47,0.00,,,0.00,Wunderground v.1.15,2013-01-26 20:19:00,
2013-01-26 14:24:00,28.8,11.1,30.39,SSW,211,3.0,3.0,47,0.00,,,0.00,Wunderground v.1.15,2013-01-26 20:24:00,
2013-01-26 14:29:00,28.8,11.1,30.39,ENE,76,2.0,3.0,47,0.00,,,0.00,Wunderground v.1.15,2013-01-26 20:29:00,
2013-01-26 14:35:00,29.1,11.4,30.39,WNW,292,2.0,2.0,47,0.00,,,0.00,Wunderground v.1.15,2013-01-26 20:35:00,
2013-01-26 14:40:00,29.2,11.0,30.40,WNW,292,2.0,3.0,46,0.00,,,0.00,Wunderground v.1.15,2013-01-26 20:40:00,
2013-01-26 14:45:00,29.3,11.1,30.40,WNW,286,2.0,3.0,46,0.00,,,0.00,Wunderground v.1.15,2013-01-26 20:45:00,
2013-01-26 14:51:00,29.7,11.9,30.40,North,350,1.0,2.0,47,0.00,,,0.00,Wunderground v.1.15,2013-01-26 20:51:00,
2013-01-26 14:56:00,29.7,11.4,30.39,NNE,19,2.0,3.0,46,0.00,,,0.00,Wunderground v.1.15,2013-01-26 20:56:00,
2013-01-26 15:02:00,29.5,11.7,30.40,NW,306,2.0,3.0,47,0.00,,,0.00,Wunderground v.1.15,2013-01-26 21:02:00,
2013-01-26 15:08:00,30.1,12.7,30.39,WNW,283,1.0,3.0,48,0.00,,,0.00,Wunderground v.1.15,2013-01-26 21:08:00,
2013-01-26 15:14:00,30.5,12.2,30.39,WNW,283,1.0,2.0,46,0.00,,,0.00,Wunderground v.1.15,2013-01-26 21:14:00,
2013-01-26 15:19:00,30.9,13.0,30.39,SE,139,0.0,2.0,47,0.00,,,0.00,Wunderground v.1.15,2013-01-26 21:19:00,
2013-01-26 15:25:00,30.4,12.1,30.39,SSE,151,1.0,2.0,46,0.00,,,0.00,Wunderground v.1.15,2013-01-26 21:25:00,
2013-01-26 15:31:00,30.0,11.7,30.39,East,91,2.0,2.0,46,0.00,,,0.00,Wunderground v.1.15,2013-01-26 21:31:00,
2013-01-26 15:37:00,29.8,12.0,30.39,ESE,112,2.0,3.0,47,0.00,,,0.00,Wunderground v.1.15,2013-01-26 21:37:00,
2013-01-26 15:43:00,29.4,11.6,30.39,ESE,105,2.0,4.0,47,0.00,,,0.00,Wunderground v.1.15,2013-01-26 21:43:00,
2013-01-26 15:48:00,29.2,11.9,30.39,East,87,3.0,5.0,48,0.00,,,0.00,Wunderground v.1.15,2013-01-26 21:48:00,
2013-01-26 15:54:00,29.1,11.8,30.39,ESE,107,3.0,3.0,48,0.00,,,0.00,Wunderground v.1.15,2013-01-26 21:54:00,
2013-01-26 16:00:00,29.0,11.7,30.39,ESE,107,2.0,2.0,48,0.00,,,0.00,Wunderground v.1.15,2013-01-26 22:00:00,
2013-01-26 16:05:00,29.0,12.2,30.38,ENE,63,3.0,4.0,49,0.00,,,0.00,Wunderground v.1.15,2013-01-26 22:05:00,
2013-01-26 16:11:00,28.9,12.1,30.38,ENE,75,4.0,4.0,49,0.00,,,0.00,Wunderground v.1.15,2013-01-26 22:11:00,
2013-01-26 16:16:00,28.8,12.0,30.39,East,85,4.0,5.0,49,0.00,,,0.00,Wunderground v.1.15,2013-01-26 22:16:00,
2013-01-26 16:21:00,28.8,12.0,30.39,East,85,2.0,3.0,49,0.00,,,0.00,Wunderground v.1.15,2013-01-26 22:21:00,
2013-01-26 16:27:00,28.7,11.9,30.39,East,85,1.0,3.0,49,0.00,,,0.00,Wunderground v.1.15,2013-01-26 22:27:00,
2013-01-26 16:33:00,28.6,11.8,30.39,East,85,2.0,3.0,49,0.00,,,0.00,Wunderground v.1.15,2013-01-26 22:33:00,
2013-01-26 16:38:00,28.5,12.2,30.39,East,85,2.0,3.0,50,0.00,,,0.00,Wunderground v.1.15,2013-01-26 22:38:00,
2013-01-26 16:44:00,28.3,12.5,30.39,East,85,2.0,2.0,51,0.00,,,0.00,Wunderground v.1.15,2013-01-26 22:44:00,
2013-01-26 16:50:00,28.2,11.9,30.39,East,85,2.0,2.0,50,0.00,,,0.00,Wunderground v.1.15,2013-01-26 22:50:00,
2013-01-26 16:55:00,28.0,13.1,30.39,East,85,2.0,3.0,53,0.00,,,0.00,Wunderground v.1.15,2013-01-26 22:55:00,
2013-01-26 17:01:00,27.5,13.8,30.38,East,85,3.0,3.0,56,0.00,,,0.00,Wunderground v.1.15,2013-01-26 23:01:00,
2013-01-26 17:06:00,27.1,13.5,30.37,East,86,4.0,5.0,56,0.00,,,0.00,Wunderground v.1.15,2013-01-26 23:06:00,
2013-01-26 17:12:00,26.7,13.9,30.38,East,86,3.0,4.0,58,0.00,,,0.00,Wunderground v.1.15,2013-01-26 23:12:00,
2013-01-26 17:17:00,26.3,13.9,30.38,East,86,3.0,4.0,59,0.00,,,0.00,Wunderground v.1.15,2013-01-26 23:17:00,
2013-01-26 17:23:00,26.0,14.4,30.38,East,86,2.0,2.0,61,0.00,,,0.00,Wunderground v.1.15,2013-01-26 23:23:00,
2013-01-26 17:29:00,25.7,14.5,30.39,East,86,1.0,2.0,62,0.00,,,0.00,Wunderground v.1.15,2013-01-26 23:29:00,
2013-01-26 17:34:00,25.4,14.2,30.40,East,86,0.0,0.0,62,0.00,,,0.00,Wunderground v.1.15,2013-01-26 23:34:00,
2013-01-26 17:39:00,25.3,14.5,30.41,East,86,1.0,2.0,63,0.00,,,0.00,Wunderground v.1.15,2013-01-26 23:39:00,
2013-01-26 17:44:00,25.4,13.8,30.42,East,86,1.0,2.0,61,0.00,,,0.00,Wunderground v.1.15,2013-01-26 23:44:00,
2013-01-26 17:49:00,25.5,14.3,30.42,East,86,0.0,2.0,62,0.00,,,0.00,Wunderground v.1.15,2013-01-26 23:49:00,
2013-01-26 17:55:00,25.4,14.5,30.42,East,86,0.0,0.0,63,0.00,,,0.00,Wunderground v.1.15,2013-01-26 23:55:00,
2013-01-26 18:00:00,25.2,15.1,30.42,East,86,0.0,0.0,65,0.00,,,0.00,Wunderground v.1.15,2013-01-27 00:00:00,
2013-01-26 18:06:00,24.9,15.8,30.42,East,86,0.0,0.0,68,0.00,,,0.00,Wunderground v.1.15,2013-01-27 00:06:00,
2013-01-26 18:12:00,24.5,14.4,30.42,East,86,0.0,0.0,65,0.00,,,0.00,Wunderground v.1.15,2013-01-27 00:12:00,
2013-01-26 18:17:00,24.3,14.6,30.42,East,86,0.0,0.0,66,0.00,,,0.00,Wunderground v.1.15,2013-01-27 00:17:00,
2013-01-26 18:23:00,24.2,14.8,30.42,East,86,0.0,0.0,67,0.00,,,0.00,Wunderground v.1.15,2013-01-27 00:23:00,
2013-01-26 18:29:00,24.0,15.3,30.42,East,86,0.0,0.0,69,0.00,,,0.00,Wunderground v.1.15,2013-01-27 00:29:00,
2013-01-26 18:34:00,23.9,14.9,30.42,East,86,0.0,0.0,68,0.00,,,0.00,Wunderground v.1.15,2013-01-27 00:34:00,
2013-01-26 18:40:00,23.9,14.9,30.43,East,86,0.0,0.0,68,0.00,,,0.00,Wunderground v.1.15,2013-01-27 00:40:00,
2013-01-26 18:45:00,23.9,15.9,30.42,East,86,0.0,2.0,71,0.00,,,0.00,Wunderground v.1.15,2013-01-27 00:45:00,
2013-01-26 18:51:00,23.7,16.6,30.41,East,86,0.0,2.0,74,0.00,,,0.00,Wunderground v.1.15,2013-01-27 00:51:00,
2013-01-26 18:57:00,23.6,16.8,30.41,East,86,1.0,2.0,75,0.00,,,0.00,Wunderground v.1.15,2013-01-27 00:57:00,
2013-01-26 19:02:00,23.9,16.8,30.42,East,86,2.0,2.0,74,0.00,,,0.00,Wunderground v.1.15,2013-01-27 01:02:00,
2013-01-26 19:07:00,24.5,17.1,30.40,East,101,3.0,6.0,73,0.00,,,0.00,Wunderground v.1.15,2013-01-27 01:07:00,
2013-01-26 19:13:00,25.1,17.0,30.40,ESE,103,4.0,4.0,71,0.00,,,0.00,Wunderground v.1.15,2013-01-27 01:13:00,
2013-01-26 19:18:00,25.4,16.6,30.40,ESE,103,3.0,4.0,69,0.00,,,0.00,Wunderground v.1.15,2013-01-27 01:18:00,
2013-01-26 19:24:00,25.8,16.7,30.40,ESE,103,2.0,3.0,68,0.00,,,0.00,Wunderground v.1.15,2013-01-27 01:24:00,
2013-01-26 19:30:00,26.0,16.2,30.40,ESE,103,2.0,2.0,66,0.00,,,0.00,Wunderground v.1.15,2013-01-27 01:30:00,
2013-01-26 19:36:00,26.0,16.2,30.39,ESE,110,3.0,5.0,66,0.00,,,0.00,Wunderground v.1.15,2013-01-27 01:36:00,
2013-01-26 19:41:00,25.8,16.0,30.39,ESE,103,4.0,4.0,66,0.00,,,0.00,Wunderground v.1.15,2013-01-27 01:41:00,
2013-01-26 19:47:00,25.4,16.0,30.38,East,101,5.0,5.0,67,0.00,,,0.00,Wunderground v.1.15,2013-01-27 01:47:00,
2013-01-26 19:52:00,25.2,15.8,30.39,East,101,4.0,5.0,67,0.00,,,0.00,Wunderground v.1.15,2013-01-27 01:52:00,
2013-01-26 19:58:00,25.1,15.7,30.39,East,101,3.0,5.0,67,0.00,,,0.00,Wunderground v.1.15,2013-01-27 01:58:00,
2013-01-26 20:04:00,25.2,15.8,30.39,East,101,2.0,3.0,67,0.00,,,0.00,Wunderground v.1.15,2013-01-27 02:04:00,
2013-01-26 20:09:00,25.3,15.9,30.39,East,101,2.0,3.0,67,0.00,,,0.00,Wunderground v.1.15,2013-01-27 02:09:00,
2013-01-26 20:14:00,25.4,16.0,30.40,East,101,2.0,3.0,67,0.00,,,0.00,Wunderground v.1.15,2013-01-27 02:14:00,
2013-01-26 20:19:00,25.4,16.0,30.40,East,101,2.0,3.0,67,0.00,,,0.00,Wunderground v.1.15,2013-01-27 02:19:00,
2013-01-26 20:25:00,25.4,15.6,30.40,East,101,2.0,2.0,66,0.00,,,0.00,Wunderground v.1.15,2013-01-27 02:25:00,
2013-01-26 20:31:00,25.3,16.5,30.40,East,101,2.0,2.0,69,0.00,,,0.00,Wunderground v.1.15,2013-01-27 02:31:00,
2013-01-26 20:37:00,25.2,16.5,30.41,East,101,1.0,2.0,69,0.00,,,0.00,Wunderground v.1.15,2013-01-27 02:37:00,
2013-01-26 20:42:00,25.1,16.4,30.40,East,101,0.0,2.0,69,0.00,,,0.00,Wunderground v.1.15,2013-01-27 02:42:00,
2013-01-26 20:48:00,25.1,16.7,30.40,East,101,1.0,3.0,70,0.00,,,0.00,Wunderground v.1.15,2013-01-27 02:48:00,
2013-01-26 20:54:00,25.2,16.8,30.40,East,98,3.0,6.0,70,0.00,,,0.00,Wunderground v.1.15,2013-01-27 02:54:00,
2013-01-26 21:00:00,25.4,16.6,30.41,East,92,4.0,5.0,69,0.00,,,0.00,Wunderground v.1.15,2013-01-27 03:00:00,
2013-01-26 21:06:00,25.7,16.3,30.41,East,93,3.0,5.0,67,0.00,,,0.00,Wunderground v.1.15,2013-01-27 03:06:00,
2013-01-26 21:12:00,26.0,16.5,30.41,ESE,105,4.0,4.0,67,0.00,,,0.00,Wunderground v.1.15,2013-01-27 03:12:00,
2013-01-26 21:18:00,26.1,17.0,30.41,ESE,113,5.0,7.0,68,0.00,,,0.00,Wunderground v.1.15,2013-01-27 03:18:00,
2013-01-26 21:24:00,26.3,17.8,30.41,ESE,117,6.0,8.0,70,0.00,,,0.00,Wunderground v.1.15,2013-01-27 03:24:00,
2013-01-26 21:29:00,26.3,18.2,30.41,ESE,119,6.0,9.0,71,0.00,,,0.00,Wunderground v.1.15,2013-01-27 03:29:00,
2013-01-26 21:34:00,26.3,18.8,30.41,ESE,117,7.0,8.0,73,0.00,,,0.00,Wunderground v.1.15,2013-01-27 03:34:00,